Погода в Хуайнани

Китай     32°38′23″N   117°00′26″E
темп.,
°C
ветер,
м/с
пор.,
м/с
влажн.,
%
обл.,
%
осадки,
мм/ч
давл.,
гПа
погр.,
м
17 мая, пн
пн1723:00+13зсз4788100 0.6 1015375
02:00+12сз3691100 0.9 1014253
05:00+12зсз358972 0.0 1014176
08:00+15зсз3375100 0.0 1015389
11:00+20сз335220 0.0 10151134
14:00+22ссв3346100 0.0 10131601
17:00+22ссз2149100 0.0 10131339
20:00+18с2265100 0.0 101341
18 мая, вт
вт1823:00+17ююв00685 0.0 101411
02:00+16з1170100 0.0 101311
05:00+15зюз01745 0.0 101311
08:00+19юв1164100 0.0 1013230
11:00+23ююз2249100 0.0 10131221
14:00+25ююз2245100 0.0 10111555
17:00+24ю3349100 0.0 10101610
20:00+21ююв2263100 0.0 101115
19 мая, ср
ср1923:00+20ю3374100 0.0 101151
02:00+18ююв2277100 0.0 101024
05:00+18ююв2280100 0.0 101027
08:00+20вюв2374100 0.0 1010297
11:00+22юв4569100 0.0 1010841
14:00+19ю2387100 0.9 1008292
17:00+18юв1194100 0.6 100785
20:00+18с2298100 5.2 1008135
20 мая, чт
чт2023:00+18всв3696100 0.8 1008303
02:00+17всв2496100 0.9 1005212
05:00+17ссз2297100 0.2 1006121
08:00+17с2396100 0.2 1007279
11:00+20с1284100 0.1 1007576
14:00+23сз2271100 0.2 1005887
17:00+23св226899 0.1 1004745
20:00+19в348476 0.1 100569
21 мая, пт
пт2123:00+18всв3690100 0.0 1008129
02:00+18ююв378888 0.0 1005161
05:00+17юв2293100 0.0 100528
08:00+22юв23822 0.0 1007349
11:00+27ю225952 0.0 10071074
14:00+30ю22475 0.0 10051465
17:00+30ююв3346100 0.0 10041768
20:00+25ююв4867100 0.0 1005148